Location: Rostock
(54.0884°N, 12.1234°E)
Time: 22:50:54
(UTC+02:00)

OTV 5 (USA 277) - Visible Passes

Search period start: 24 April 2018 00:00
Search period end: 04 May 2018 00:00
Orbit: 308 x 325 km, 54.5° (Epoch: 23 April)

Date Brightness Start Highest point End Pass type
(mag) Time Alt. Az. Time Alt. Az. Time Alt. Az.
24 Apr ? 21:36:11 10° W 21:38:56 86° N 21:41:39 10° E visible
24 Apr ? 23:10:34 10° W 23:12:47 55° W 23:12:47 55° W visible
25 Apr ? 21:50:42 10° W 21:53:26 78° N 21:55:49 13° E visible
25 Apr ? 23:25:03 10° W 23:26:41 30° W 23:26:41 30° W visible
26 Apr ? 22:05:12 10° W 22:07:56 86° N 22:09:40 20° E visible
26 Apr ? 23:39:37 10° W 23:40:32 18° W 23:40:32 18° W visible
27 Apr ? 22:19:42 10° W 22:22:25 71° SSW 22:23:30 31° ESE visible
27 Apr ? 23:54:22 10° W 23:54:22 10° W 23:54:22 10° W visible
28 Apr ? 22:34:13 10° W 22:36:51 44° SSW 22:37:20 38° S visible
29 Apr ? 22:48:50 10° W 22:51:10 25° SSW 22:51:10 25° SSW visible
30 Apr ? 21:28:50 10° W 21:31:32 57° SSW 21:34:09 10° ESE visible
30 Apr ? 23:03:50 10° WSW 23:05:01 14° SW 23:05:01 14° SW visible
01 May ? 21:43:23 10° W 21:45:55 34° SSW 21:48:02 13° SE visible
02 May ? 21:58:08 10° W 22:00:12 19° SW 22:01:56 12° S visible
03 May ? 22:13:51 10° SW 22:14:23 10° SW 22:14:55 10° SSW visible
